STARLINK-1454, 45671

Orbit data source: Space-Track

STARLINK-1454, 45671 is a payload satellite owned by SpaceX/Seattle (US) in LEO that was launched on Thu, 04 Jun 2020 UTC via an FALCON 9 launch vehicle from the Air Force Eastern Test Range (AFETR). Payload-class satellites include a variety of spacecraft equipped with specific instruments for various scientific and technological missions. These include communications satellites like Starlink; space stations such as the ISS; scientific satellites like the Hubble; Earth observation satellites from companies like Planet Labs, Umbra, and HawkEye 360; GPS; miniature CubeSats for education and research; and military/defense satellites.

Loading next visibility...
Identifier
45671, 2020-035Q
Orbit
LEO
Country
Flag of USUS
Related business
Manufacturer
SpaceX/Seattle
Mission
Operational Commercial Communications
Bus & Motor
STARLINK, Unknown motor
Mass
260 kg wet, ~248 kg dry
Launch date (UTC)
2020-06-04 (6 years ago)
Launch vehicle
FALCON 9
Launch site
Air Force Eastern Test Range (AFETR)
Object type
Payload
Rocket body
Debris
Shape & HBR
Box + 1 Pan, 10.1 m
Radar Cross Section
13.562 m², Large (>1 m²)

Expand to show TLE details & history
Last TLE update: 2 hours ago

TLE from 2 hours ago
0 STARLINK-1454
1 45671U 20035Q   26036.25003471  .00188330  00000-0  39252-2 0  9998
2 45671  53.0542 207.9738 0002184 278.7306 329.8637 15.44393082  5785
Epoch: 2026-02-05T06:00Z
TLE epoch observation values (Epoch: 2026-02-05T06:00:02.998Z)
Latitude
-48.25374°
Longitude
-140.50773°
Altitude
448.411 km
Speed
7.644 km/s
True Right ascension
05h 39m 38s
True Declination
-48° 04' 30"
Sunlit
Object was in daylight at epoch
Visualization orbit readout
Latitude
Unknown
Longitude
Unknown
Altitude
Unknown
Speed
Unknown
Apparent Right ascension
Unknown
Apparent Declination
Unknown
Sunlit
N/A
Visualization observer readout
Local Sidereal Time
09:48:30
Azimuth
Unknown
Elevation
Unknown
Doppler factor
Unknown
Orbital elements
Apogee altitude
434.925 km
Perigee altitude
431.949 km
Semi-major axis
6,811.574 km
Eccentricity
0.00022
Inclination
53.0542°
RAAN
207.9738°
Arg. of periapsis
278.7306°
True anomaly
329.85113°
Mean anomaly
329.8637°
Eccentric anomaly
329.85742°
Mean motion
3.86075 °/min
Orbital period
93.25 mins
BSTAR
0.0039252
Loading maneuver chart data...
Computing Atmospheric mass density...

Documentation

Showing up to 5 results
|